Terug naar catalogus

STARLINK-31000

ActiefCommunicatieVLEO
NORAD 58488·PAYLOAD·🇺🇸 United States

Gelanceerd Dec 3, 2023 vanaf Cape Canaveral Space Force Station

Loading…

Volgende Passages (komende 24 uur)

TLE

VersSource: CelesTrak SupGP

Epoch: Sep 15, 2026, 02:33 UTC

1 58488C 23186R   26258.10673611 -.00006660  00000+0 -24116-3 0  2585
2 58488  43.0018  73.9263 0001676 273.9968 133.9275 15.27588997    17

Volg STARLINK-31000 in realtime met AllMySat

Download on the App Store